| time (UTC) | temp F | wind direction | speed MPH | gust MPH | rain 1hr in | rain 24hr in | rain mn in | humidity % | barometer mb |
| 20260505083135 | 55 | 286 | 7.0 | 12.0 | 0.02 | 0.48 | 0.17 | 94 | 1012.9 |
| 20260505082959 | 55 | 312 | 7.0 | 12.0 | 0.02 | 0.48 | 0.17 | 94 | 1013.0 |
| 20260505082813 | 55 | 309 | 7.0 | 12.0 | 0.02 | 0.48 | 0.17 | 95 | 1012.9 |
| 20260505082715 | 55 | 286 | 7.0 | 12.0 | 0.02 | 0.48 | 0.17 | 95 | 1013.0 |
| 20260505082621 | 55 | 233 | 9.0 | 11.0 | 0.02 | 0.49 | 0.17 | 95 | 1012.9 |
| 20260505082443 | 55 | 271 | 4.0 | 10.0 | 0.02 | 0.49 | 0.17 | 95 | 1013.0 |
| 20260505082054 | 55 | 290 | 5.0 | 9.0 | 0.02 | 0.49 | 0.17 | 95 | 1012.9 |
| 20260505081906 | 55 | 310 | 5.0 | 9.0 | 0.02 | 0.49 | 0.17 | 96 | 1012.9 |
| 20260505081718 | 55 | 275 | 4.0 | 11.0 | 0.02 | 0.48 | 0.17 | 96 | 1012.9 |
| 20260505081619 | 55 | 269 | 3.0 | 11.0 | 0.02 | 0.48 | 0.16 | 96 | 1013.0 |
| 20260505081523 | 55 | 274 | 3.0 | 11.0 | 0.02 | 0.48 | 0.16 | 96 | 1013.0 |
| 20260505081336 | 54 | 292 | 4.0 | 11.0 | 0.02 | 0.48 | 0.16 | 96 | 1013.0 |
| 20260505081149 | 54 | 274 | 5.0 | 11.0 | 0.02 | 0.48 | 0.16 | 96 | 1012.9 |
| 20260505081136 | 54 | 292 | 5.0 | 11.0 | 0.02 | 0.48 | 0.16 | 96 | 1012.9 |
| 20260505080950 | 54 | 271 | 8.0 | 11.0 | 0.02 | 0.48 | 0.16 | 96 | 1013.0 |
| 20260505080807 | 55 | 267 | 2.0 | 9.0 | 0.02 | 0.48 | 0.16 | 97 | 1012.9 |
| 20260505080701 | 55 | 260 | 1.0 | 7.0 | 0.02 | 0.48 | 0.16 | 97 | 1012.9 |
| 20260505080051 | 54 | 282 | 4.0 | 9.0 | 0.02 | 0.48 | 0.16 | 97 | 1012.9 |
| 20260505075915 | 54 | 313 | 2.0 | 9.0 | 0.02 | 0.48 | 0.16 | 97 | 1012.9 |
| 20260505075732 | 54 | 287 | 6.0 | 9.0 | 0.02 | 0.48 | 0.16 | 97 | 1012.9 |
| 20260505075627 | 54 | 284 | 7.0 | 9.0 | 0.02 | 0.48 | 0.16 | 97 | 1012.8 |
| 20260505074503 | 54 | 294 | 2.0 | 8.0 | 0.02 | 0.48 | 0.15 | 98 | 1012.8 |
| 20260505074327 | 54 | 312 | 2.0 | 8.0 | 0.02 | 0.48 | 0.15 | 98 | 1012.9 |
| 20260505074150 | 54 | 311 | 3.0 | 8.0 | 0.02 | 0.48 | 0.15 | 98 | 1013.0 |
| 20260505074030 | 54 | 302 | 4.0 | 8.0 | 0.02 | 0.48 | 0.15 | 98 | 1012.9 |
| 20260505073945 | 54 | 269 | 5.0 | 8.0 | 0.02 | 0.48 | 0.15 | 97 | 1012.9 |
| 20260505073401 | 54 | 303 | 4.0 | 8.0 | 0.02 | 0.48 | 0.15 | 97 | 1012.9 |
| 20260505073339 | 54 | 290 | 4.0 | 8.0 | 0.02 | 0.48 | 0.15 | 97 | 1013.0 |
| 20260505072818 | 54 | 277 | 5.0 | 8.0 | 0.02 | 0.48 | 0.15 | 98 | 1012.8 |
| 20260505072015 | 54 | 272 | 6.0 | 8.0 | 0.02 | 0.48 | 0.15 | 97 | 1012.8 |
| 20260505071821 | 54 | 270 | 5.0 | 7.0 | 0.02 | 0.47 | 0.15 | 98 | 1012.8 |
| 20260505071752 | 54 | 265 | 5.0 | 7.0 | 0.02 | 0.47 | 0.14 | 98 | 1012.8 |
| 20260505071628 | 54 | 265 | 3.0 | 7.0 | 0.02 | 0.47 | 0.14 | 98 | 1012.7 |
| 20260505071105 | 54 | 298 | 3.0 | 8.0 | 0.02 | 0.47 | 0.14 | 98 | 1012.8 |
| 20260505070634 | 54 | 279 | 4.0 | 8.0 | 0.02 | 0.47 | 0.14 | 98 | 1012.7 |
| 20260505070439 | 54 | 291 | 3.0 | 8.0 | 0.02 | 0.48 | 0.14 | 98 | 1012.9 |
| 20260505070409 | 54 | 267 | 4.0 | 8.0 | 0.02 | 0.48 | 0.14 | 98 | 1012.8 |
| 20260505070254 | 54 | 269 | 5.0 | 8.0 | 0.02 | 0.48 | 0.14 | 98 | 1012.8 |
| 20260505070110 | 54 | 277 | 3.0 | 8.0 | 0.02 | 0.48 | 0.14 | 98 | 1012.9 |
| 20260505065955 | 54 | 298 | 2.0 | 8.0 | 0.02 | 0.48 | 0.14 | 98 | 1012.8 |
| 20260505065529 | 54 | 256 | 3.0 | 8.0 | 0.02 | 0.48 | 0.14 | 98 | 1012.8 |
| 20260505065333 | 54 | 247 | 3.0 | 8.0 | 0.02 | 0.48 | 0.14 | 98 | 1012.8 |
| 20260505065303 | 54 | 247 | 3.0 | 8.0 | 0.02 | 0.48 | 0.14 | 98 | 1012.8 |
| 20260505065142 | 54 | 239 | 4.0 | 10.0 | 0.02 | 0.48 | 0.14 | 98 | 1012.9 |
| 20260505065005 | 54 | 267 | 2.0 | 10.0 | 0.02 | 0.48 | 0.14 | 98 | 1012.9 |
| 20260505064836 | 54 | 257 | 3.0 | 10.0 | 0.02 | 0.48 | 0.14 | 98 | 1012.9 |
| 20260505064410 | 54 | 303 | 3.0 | 10.0 | 0.01 | 0.47 | 0.14 | 98 | 1012.8 |
| 20260505063927 | 53 | 223 | 4.0 | 10.0 | 0.01 | 0.47 | 0.13 | 98 | 1012.8 |
| 20260505063805 | 53 | 261 | 3.0 | 8.0 | 0.02 | 0.47 | 0.13 | 98 | 1012.9 |
| 20260505063251 | 53 | 227 | 3.0 | 8.0 | 0.02 | 0.47 | 0.13 | 98 | 1012.8 |
| 20260505063217 | 53 | 259 | 3.0 | 8.0 | 0.02 | 0.47 | 0.13 | 98 | 1012.8 |
| 20260505063043 | 53 | 274 | 4.0 | 8.0 | 0.02 | 0.47 | 0.13 | 98 | 1012.8 |
| 20260505062848 | 53 | 258 | 4.0 | 8.0 | 0.02 | 0.47 | 0.13 | 98 | 1012.8 |
| 20260505062819 | 53 | 264 | 3.0 | 8.0 | 0.02 | 0.47 | 0.13 | 98 | 1012.8 |
| 20260505062703 | 53 | 276 | 2.0 | 6.0 | 0.02 | 0.48 | 0.13 | 98 | 1012.8 |
| 20260505062523 | 53 | 240 | 2.0 | 6.0 | 0.02 | 0.48 | 0.13 | 98 | 1012.8 |
| 20260505062121 | 53 | 249 | 2.0 | 8.0 | 0.02 | 0.48 | 0.13 | 98 | 1012.8 |
| 20260505061940 | 53 | 250 | 2.0 | 9.0 | 0.02 | 0.48 | 0.13 | 98 | 1012.8 |
| 20260505061747 | 53 | 246 | 2.0 | 9.0 | 0.02 | 0.48 | 0.13 | 98 | 1012.7 |
| 20260505061718 | 53 | 236 | 2.0 | 9.0 | 0.02 | 0.48 | 0.13 | 98 | 1012.7 |
| 20260505061603 | 53 | 244 | 2.0 | 9.0 | 0.02 | 0.48 | 0.13 | 98 | 1012.7 |
| 20260505061418 | 53 | 246 | 6.0 | 9.0 | 0.02 | 0.48 | 0.13 | 98 | 1012.8 |
| 20260505061243 | 53 | 273 | 4.0 | 9.0 | 0.02 | 0.48 | 0.13 | 98 | 1012.6 |
| 20260505061207 | 53 | 265 | 4.0 | 9.0 | 0.02 | 0.48 | 0.13 | 98 | 1012.7 |
| 20260505061025 | 53 | 261 | 4.0 | 8.0 | 0.02 | 0.48 | 0.13 | 98 | 1012.8 |
| 20260505060747 | 53 | 257 | 3.0 | 6.0 | 0.01 | 0.47 | 0.13 | 98 | 1012.8 |
| 20260505060727 | 53 | 245 | 4.0 | 6.0 | 0.01 | 0.47 | 0.13 | 98 | 1012.8 |
| 20260505060554 | 53 | 277 | 4.0 | 6.0 | 0.01 | 0.47 | 0.13 | 98 | 1012.8 |
| 20260505060406 | 53 | 271 | 3.0 | 6.0 | 0.02 | 0.47 | 0.13 | 98 | 1012.7 |
| 20260505055952 | 53 | 257 | 3.0 | 6.0 | 0.02 | 0.47 | 0.13 | 98 | 1012.8 |
| 20260505055819 | 53 | 284 | 2.0 | 6.0 | 0.02 | 0.47 | 0.13 | 98 | 1012.7 |
| 20260505055630 | 53 | 257 | 2.0 | 6.0 | 0.02 | 0.47 | 0.13 | 98 | 1012.7 |
| 20260505055605 | 53 | 251 | 2.0 | 6.0 | 0.02 | 0.47 | 0.13 | 98 | 1012.7 |
| 20260505055437 | 53 | 233 | 3.0 | 6.0 | 0.02 | 0.47 | 0.13 | 98 | 1012.7 |
| 20260505055258 | 53 | 250 | 2.0 | 4.0 | 0.02 | 0.47 | 0.13 | 98 | 1012.7 |
| 20260505055147 | 53 | 241 | 2.0 | 4.0 | 0.02 | 0.48 | 0.13 | 98 | 1012.8 |
| 20260505055055 | 53 | 275 | 2.0 | 4.0 | 0.02 | 0.48 | 0.13 | 98 | 1012.7 |
| 20260505054914 | 53 | 215 | 1.0 | 3.0 | 0.02 | 0.48 | 0.13 | 98 | 1012.7 |
| 20260505054748 | 53 | 209 | 1.0 | 3.0 | 0.02 | 0.48 | 0.13 | 98 | 1012.7 |
| 20260505053947 | 53 | 232 | 1.0 | 3.0 | 0.02 | 0.48 | 0.13 | 98 | 1012.7 |
| 20260505053904 | 53 | 220 | 1.0 | 3.0 | 0.02 | 0.48 | 0.13 | 98 | 1012.6 |
| 20260505053828 | 53 | 244 | 2.0 | 3.0 | 0.02 | 0.48 | 0.13 | 98 | 1012.7 |
| 20260505053259 | 53 | 250 | 0.0 | 3.0 | 0.02 | 0.48 | 0.13 | 98 | 1012.6 |
| 20260505053246 | 53 | 250 | 0.0 | 3.0 | 0.02 | 0.48 | 0.13 | 98 | 1012.7 |
| 20260505053134 | 53 | 246 | 2.0 | 3.0 | 0.01 | 0.47 | 0.12 | 98 | 1012.7 |
| 20260505052902 | 53 | 234 | 0.0 | 3.0 | 0.01 | 0.47 | 0.12 | 98 | 1012.5 |
| 20260505052742 | 53 | 236 | 0.0 | 2.0 | 0.02 | 0.47 | 0.12 | 98 | 1012.6 |
| 20260505052707 | 53 | 222 | 0.0 | 2.0 | 0.02 | 0.47 | 0.12 | 98 | 1012.6 |
| 20260505052129 | 53 | 223 | 0.0 | 2.0 | 0.02 | 0.47 | 0.12 | 98 | 1012.6 |
| 20260505052116 | 53 | 223 | 0.0 | 2.0 | 0.02 | 0.47 | 0.12 | 98 | 1012.7 |
| 20260505051554 | 53 | 238 | 0.0 | 3.0 | 0.02 | 0.47 | 0.12 | 98 | 1012.6 |
| 20260505051518 | 53 | 238 | 0.0 | 3.0 | 0.02 | 0.48 | 0.12 | 98 | 1012.6 |
| 20260505051453 | 53 | 238 | 0.0 | 3.0 | 0.02 | 0.48 | 0.12 | 98 | 1012.6 |
| 20260505051255 | 53 | 239 | 0.0 | 3.0 | 0.02 | 0.48 | 0.12 | 98 | 1012.6 |
| 20260505051116 | 53 | 231 | 0.0 | 3.0 | 0.02 | 0.48 | 0.12 | 98 | 1012.6 |
| 20260505050923 | 53 | 240 | 1.0 | 3.0 | 0.02 | 0.48 | 0.12 | 98 | 1012.5 |
| 20260505050751 | 53 | 218 | 0.0 | 0.0 | 0.02 | 0.48 | 0.12 | 98 | 1012.5 |
| 20260505050438 | 53 | 218 | 0.0 | 0.0 | 0.02 | 0.48 | 0.12 | 98 | 1012.4 |
| 20260505050255 | 53 | 218 | 0.0 | 0.0 | 0.02 | 0.48 | 0.12 | 98 | 1012.5 |
| 20260505050151 | 53 | 218 | 0.0 | 0.0 | 0.02 | 0.48 | 0.12 | 98 | 1012.5 |
| 20260505041624 | 54 | 218 | 0.0 | 0.0 | 0.02 | 0.48 | 0.10 | 98 | 1012.5 |
| 20260505041514 | 54 | 218 | 0.0 | 0.0 | 0.02 | 0.48 | 0.10 | 98 | 1012.5 |
| 20260505041459 | 54 | 218 | 0.0 | 0.0 | 0.02 | 0.48 | 0.10 | 98 | 1012.5 |
| 20260505041415 | 54 | 218 | 0.0 | 0.0 | 0.02 | 0.48 | 0.10 | 98 | 1012.6 |
| 20260505040835 | 53 | 218 | 0.0 | 0.0 | 0.02 | 0.48 | 0.10 | 98 | 1012.5 |
| 20260505040806 | 54 | 218 | 0.0 | 0.0 | 0.02 | 0.48 | 0.10 | 98 | 1012.5 |
| 20260505040615 | 54 | 218 | 0.0 | 0.0 | 0.02 | 0.48 | 0.10 | 98 | 1012.5 |
| 20260505040458 | 55 | 250 | 0.0 | 0.0 | 0.02 | 0.49 | 0.48 | 97 | 1014.4 |
| 20260505040428 | 54 | 218 | 0.0 | 0.0 | 0.02 | 0.48 | 0.10 | 98 | 1012.5 |
| 20260505040402 | 53 | 218 | 0.0 | 0.0 | 0.02 | 0.48 | 0.10 | 98 | 1012.5 |
| 20260505040218 | 54 | 218 | 0.0 | 1.0 | 0.02 | 0.48 | 0.10 | 98 | 1012.5 |
| 20260505040021 | 54 | 218 | 0.0 | 1.0 | 0.02 | 0.48 | 0.10 | 98 | 1012.6 |
| 20260505035939 | 55 | 250 | 0.0 | 0.0 | 0.02 | 0.49 | 0.48 | 97 | 1014.4 |
| 20260505035840 | 54 | 218 | 0.0 | 1.0 | 0.02 | 0.48 | 0.10 | 98 | 1012.5 |
| 20260505035823 | 53 | 218 | 0.0 | 1.0 | 0.02 | 0.48 | 0.10 | 98 | 1012.5 |
| 20260505035610 | 54 | 218 | 0.0 | 1.0 | 0.02 | 0.48 | 0.10 | 98 | 1012.5 |
| 20260505035449 | 55 | 250 | 0.0 | 0.0 | 0.02 | 0.49 | 0.47 | 97 | 1014.5 |
| 20260505035407 | 54 | 218 | 0.0 | 1.0 | 0.02 | 0.48 | 0.10 | 98 | 1012.5 |
| 20260505035338 | 54 | 218 | 0.0 | 1.0 | 0.01 | 0.47 | 0.10 | 98 | 1012.5 |
| 20260505035231 | 54 | 217 | 0.0 | 1.0 | 0.02 | 0.48 | 0.09 | 98 | 1012.5 |
| 20260505035006 | 54 | 217 | 0.0 | 1.0 | 0.02 | 0.48 | 0.09 | 98 | 1012.5 |
| 20260505034959 | 55 | 250 | 0.0 | 2.0 | 0.03 | 0.50 | 0.47 | 96 | 1014.5 |
| 20260505034827 | 54 | 217 | 0.0 | 1.0 | 0.02 | 0.48 | 0.09 | 98 | 1012.5 |
| 20260505034814 | 54 | 224 | 0.0 | 1.0 | 0.02 | 0.48 | 0.09 | 98 | 1012.5 |
| 20260505034610 | 54 | 224 | 0.0 | 1.0 | 0.02 | 0.48 | 0.09 | 98 | 1012.6 |
| 20260505034551 | 55 | 264 | 0.0 | 0.0 | 0.02 | 0.49 | 0.46 | 96 | 1014.4 |
| 20260505034414 | 54 | 224 | 0.0 | 1.0 | 0.02 | 0.48 | 0.09 | 98 | 1012.6 |
| 20260505034335 | 54 | 224 | 0.0 | 1.0 | 0.02 | 0.48 | 0.09 | 98 | 1012.6 |
| 20260505034223 | 54 | 224 | 0.0 | 1.0 | 0.02 | 0.48 | 0.09 | 98 | 1012.5 |
| 20260505033953 | 54 | 250 | 0.0 | 0.0 | 0.02 | 0.48 | 0.09 | 98 | 1012.6 |
| 20260505033821 | 54 | 250 | 0.0 | 0.0 | 0.02 | 0.48 | 0.09 | 98 | 1012.5 |
| 20260505033754 | 54 | 250 | 0.0 | 0.0 | 0.02 | 0.48 | 0.09 | 98 | 1012.5 |
| 20260505033553 | 54 | 250 | 0.0 | 0.0 | 0.02 | 0.48 | 0.09 | 98 | 1012.5 |
| 20260505033425 | 55 | 264 | 0.0 | 0.0 | 0.02 | 0.49 | 0.46 | 95 | 1014.2 |
| 20260505033400 | 54 | 250 | 0.0 | 0.0 | 0.02 | 0.48 | 0.09 | 98 | 1012.5 |
| 20260505033325 | 54 | 250 | 0.0 | 0.0 | 0.02 | 0.48 | 0.09 | 98 | 1012.6 |
| 20260505033225 | 54 | 250 | 0.0 | 0.0 | 0.02 | 0.48 | 0.09 | 98 | 1012.5 |
| 20260505033033 | 54 | 250 | 0.0 | 0.0 | 0.02 | 0.49 | 0.09 | 98 | 1012.6 |
| 20260505032935 | 54 | 250 | 0.0 | 0.0 | 0.02 | 0.49 | 0.09 | 98 | 1012.5 |
| 20260505032921 | 54 | 250 | 0.0 | 0.0 | 0.02 | 0.49 | 0.09 | 98 | 1012.4 |
| 20260505032747 | 54 | 250 | 0.0 | 0.0 | 0.02 | 0.49 | 0.09 | 98 | 1012.6 |
| 20260505032625 | 54 | 250 | 0.0 | 0.0 | 0.02 | 0.49 | 0.09 | 98 | 1012.6 |
| 20260505032127 | 54 | 250 | 0.0 | 0.0 | 0.02 | 0.48 | 0.09 | 98 | 1012.6 |
| 20260505031808 | 54 | 250 | 0.0 | 0.0 | 0.02 | 0.48 | 0.09 | 98 | 1012.6 |
| 20260505031720 | 54 | 250 | 0.0 | 0.0 | 0.02 | 0.48 | 0.09 | 98 | 1012.7 |
| 20260505031536 | 54 | 250 | 0.0 | 0.0 | 0.02 | 0.48 | 0.09 | 98 | 1012.6 |
| 20260505031313 | 54 | 250 | 0.0 | 0.0 | 0.02 | 0.48 | 0.09 | 98 | 1012.6 |
| 20260505031156 | 54 | 250 | 0.0 | 0.0 | 0.02 | 0.48 | 0.09 | 98 | 1012.6 |
| 20260505030955 | 54 | 250 | 0.0 | 0.0 | 0.02 | 0.48 | 0.09 | 98 | 1012.6 |
| 20260505030917 | 54 | 250 | 0.0 | 0.0 | 0.02 | 0.48 | 0.09 | 98 | 1012.7 |
| 20260505030850 | 54 | 250 | 0.0 | 0.0 | 0.02 | 0.48 | 0.09 | 98 | 1012.6 |
| 20260505030737 | 54 | 250 | 0.0 | 1.0 | 0.02 | 0.49 | 0.09 | 98 | 1012.6 |
| 20260505030635 | 54 | 250 | 0.0 | 1.0 | 0.02 | 0.49 | 0.09 | 98 | 1012.5 |
| 20260505025822 | 54 | 250 | 0.0 | 1.0 | 0.02 | 0.49 | 0.09 | 98 | 1012.6 |
| 20260505025724 | 54 | 244 | 0.0 | 1.0 | 0.02 | 0.49 | 0.09 | 98 | 1012.5 |
| 20260505025524 | 54 | 250 | 0.0 | 0.0 | 0.02 | 0.49 | 0.09 | 98 | 1012.5 |
| 20260505025358 | 54 | 250 | 0.0 | 0.0 | 0.02 | 0.49 | 0.09 | 98 | 1012.5 |
| 20260505025247 | 54 | 250 | 0.0 | 0.0 | 0.02 | 0.48 | 0.08 | 98 | 1012.5 |
| 20260505025053 | 54 | 250 | 0.0 | 0.0 | 0.02 | 0.48 | 0.08 | 98 | 1012.4 |
| 20260505024748 | 54 | 250 | 0.0 | 0.0 | 0.02 | 0.48 | 0.08 | 98 | 1012.5 |
| 20260505024557 | 54 | 250 | 0.0 | 0.0 | 0.02 | 0.48 | 0.08 | 98 | 1012.5 |
| 20260505024456 | 54 | 250 | 0.0 | 0.0 | 0.02 | 0.48 | 0.08 | 98 | 1012.6 |
| 20260505024449 | 54 | 250 | 0.0 | 0.0 | 0.02 | 0.48 | 0.08 | 98 | 1012.6 |
| 20260505024358 | 54 | 250 | 0.0 | 0.0 | 0.02 | 0.49 | 0.08 | 98 | 1012.5 |
| 20260505024219 | 54 | 250 | 0.0 | 0.0 | 0.02 | 0.49 | 0.08 | 98 | 1012.5 |
| 20260505023521 | 54 | 250 | 0.0 | 0.0 | 0.02 | 0.49 | 0.08 | 98 | 1012.4 |
| 20260505023428 | 54 | 250 | 0.0 | 0.0 | 0.02 | 0.49 | 0.08 | 98 | 1012.5 |
| 20260505023405 | 54 | 250 | 0.0 | 2.0 | 0.02 | 0.49 | 0.08 | 98 | 1012.6 |
| 20260505023229 | 54 | 250 | 0.0 | 2.0 | 0.02 | 0.49 | 0.08 | 98 | 1012.5 |
| 20260505023129 | 54 | 250 | 0.0 | 2.0 | 0.02 | 0.49 | 0.08 | 98 | 1012.6 |
| 20260505023103 | 54 | 250 | 0.0 | 2.0 | 0.02 | 0.49 | 0.08 | 98 | 1012.5 |
| 20260505023030 | 54 | 250 | 0.0 | 2.0 | 0.02 | 0.49 | 0.08 | 98 | 1012.5 |
| 20260505022858 | 54 | 250 | 0.0 | 2.0 | 0.02 | 0.49 | 0.08 | 98 | 1012.6 |
| 20260505022805 | 54 | 251 | 0.0 | 2.0 | 0.02 | 0.48 | 0.08 | 98 | 1012.5 |
| 20260505022749 | 54 | 252 | 0.0 | 2.0 | 0.02 | 0.48 | 0.08 | 98 | 1012.6 |
| 20260505021948 | 54 | 233 | 0.0 | 2.0 | 0.02 | 0.48 | 0.07 | 98 | 1012.5 |
| 20260505021859 | 54 | 233 | 0.0 | 2.0 | 0.02 | 0.48 | 0.07 | 98 | 1012.6 |
| 20260505021708 | 54 | 233 | 0.0 | 2.0 | 0.02 | 0.48 | 0.07 | 98 | 1012.6 |
| 20260505021620 | 54 | 233 | 0.0 | 2.0 | 0.02 | 0.48 | 0.07 | 98 | 1012.6 |
| 20260505021534 | 54 | 233 | 0.0 | 4.0 | 0.02 | 0.49 | 0.07 | 98 | 1012.7 |
| 20260505021415 | 54 | 233 | 0.0 | 4.0 | 0.02 | 0.49 | 0.07 | 98 | 1012.6 |
| 20260505021350 | 54 | 236 | 0.0 | 4.0 | 0.02 | 0.49 | 0.07 | 98 | 1012.6 |
| 20260505021303 | 54 | 236 | 1.0 | 4.0 | 0.02 | 0.49 | 0.07 | 98 | 1012.6 |
| 20260505021124 | 54 | 244 | 0.0 | 4.0 | 0.02 | 0.49 | 0.07 | 98 | 1012.6 |
| 20260505021022 | 54 | 247 | 1.0 | 4.0 | 0.02 | 0.49 | 0.07 | 98 | 1012.8 |
| 20260505021003 | 54 | 247 | 1.0 | 4.0 | 0.02 | 0.49 | 0.07 | 98 | 1012.6 |
| 20260505020818 | 54 | 264 | 0.0 | 3.0 | 0.02 | 0.49 | 0.07 | 98 | 1012.8 |
| 20260505020657 | 54 | 238 | 2.0 | 2.0 | 0.02 | 0.49 | 0.07 | 98 | 1012.7 |
| 20260505020627 | 54 | 234 | 2.0 | 2.0 | 0.02 | 0.49 | 0.07 | 98 | 1012.6 |
| 20260505020516 | 54 | 253 | 1.0 | 2.0 | 0.02 | 0.49 | 0.07 | 98 | 1012.8 |
| 20260505020329 | 54 | 249 | 1.0 | 2.0 | 0.02 | 0.48 | 0.07 | 98 | 1012.8 |
| 20260505015940 | 54 | 246 | 1.0 | 2.0 | 0.02 | 0.48 | 0.06 | 98 | 1012.8 |
| 20260505015815 | 54 | 240 | 1.0 | 3.0 | 0.02 | 0.48 | 0.06 | 98 | 1012.9 |
| 20260505015642 | 54 | 242 | 1.0 | 3.0 | 0.02 | 0.48 | 0.06 | 98 | 1012.8 |
| 20260505015259 | 54 | 236 | 1.0 | 3.0 | 0.02 | 0.48 | 0.06 | 98 | 1012.9 |
| 20260505015119 | 54 | 245 | 1.0 | 3.0 | 0.02 | 0.48 | 0.06 | 98 | 1012.8 |
| 20260505015016 | 54 | 238 | 1.0 | 3.0 | 0.02 | 0.48 | 0.06 | 98 | 1012.8 |
| 20260505014947 | 54 | 238 | 1.0 | 3.0 | 0.02 | 0.48 | 0.06 | 98 | 1012.9 |
| 20260505014756 | 54 | 229 | 2.0 | 3.0 | 0.02 | 0.49 | 0.06 | 98 | 1012.9 |
| 20260505014620 | 54 | 244 | 1.0 | 2.0 | 0.02 | 0.49 | 0.06 | 98 | 1012.9 |
| 20260505014545 | 54 | 245 | 1.0 | 2.0 | 0.02 | 0.49 | 0.06 | 98 | 1012.9 |
| 20260505014056 | 54 | 232 | 0.0 | 2.0 | 0.02 | 0.49 | 0.06 | 98 | 1013.0 |
| 20260505013728 | 54 | 229 | 1.0 | 3.0 | 0.02 | 0.49 | 0.06 | 98 | 1013.0 |
| 20260505013611 | 54 | 229 | 1.0 | 3.0 | 0.02 | 0.49 | 0.06 | 98 | 1012.9 |
| 20260505013444 | 54 | 245 | 1.0 | 3.0 | 0.02 | 0.49 | 0.06 | 98 | 1013.0 |
| 20260505013413 | 54 | 242 | 1.0 | 3.0 | 0.02 | 0.49 | 0.06 | 98 | 1012.9 |
| 20260505012849 | 54 | 233 | 2.0 | 3.0 | 0.02 | 0.48 | 0.06 | 98 | 1012.8 |
| 20260505012729 | 54 | 253 | 1.0 | 3.0 | 0.02 | 0.48 | 0.06 | 98 | 1012.9 |
| 20260505012700 | 54 | 255 | 1.0 | 3.0 | 0.02 | 0.48 | 0.06 | 98 | 1013.0 |
| 20260505012201 | 54 | 252 | 1.0 | 3.0 | 0.02 | 0.48 | 0.06 | 98 | 1012.9 |
| 20260505012136 | 54 | 246 | 1.0 | 3.0 | 0.02 | 0.48 | 0.06 | 98 | 1013.0 |
| 20260505012024 | 54 | 251 | 2.0 | 3.0 | 0.02 | 0.48 | 0.06 | 98 | 1012.9 |
| 20260505011813 | 54 | 239 | 2.0 | 3.0 | 0.02 | 0.48 | 0.06 | 98 | 1012.9 |
| 20260505011713 | 54 | 241 | 2.0 | 2.0 | 0.02 | 0.48 | 0.06 | 98 | 1012.9 |
| 20260505011653 | 54 | 241 | 1.0 | 2.0 | 0.02 | 0.48 | 0.06 | 98 | 1012.9 |
| 20260505011503 | 54 | 244 | 2.0 | 2.0 | 0.02 | 0.49 | 0.06 | 98 | 1012.8 |
| 20260505011336 | 54 | 236 | 1.0 | 2.0 | 0.02 | 0.49 | 0.06 | 98 | 1012.9 |
| 20260505011311 | 54 | 244 | 1.0 | 2.0 | 0.02 | 0.49 | 0.06 | 98 | 1012.9 |
| 20260505011209 | 54 | 244 | 1.0 | 2.0 | 0.02 | 0.49 | 0.06 | 98 | 1013.0 |
| 20260505011049 | 54 | 244 | 1.0 | 2.0 | 0.02 | 0.49 | 0.06 | 98 | 1013.0 |
| 20260505010706 | 54 | 244 | 0.0 | 2.0 | 0.02 | 0.49 | 0.06 | 98 | 1013.0 |
| 20260505010551 | 54 | 244 | 0.0 | 1.0 | 0.02 | 0.49 | 0.06 | 98 | 1013.1 |
| 20260505010327 | 54 | 244 | 0.0 | 2.0 | 0.02 | 0.49 | 0.06 | 98 | 1013.1 |
| 20260505010251 | 54 | 244 | 0.0 | 2.0 | 0.02 | 0.49 | 0.06 | 98 | 1013.2 |
| 20260505005820 | 54 | 235 | 0.0 | 2.0 | 0.02 | 0.48 | 0.05 | 98 | 1013.0 |
| 20260505005706 | 54 | 235 | 0.0 | 2.0 | 0.02 | 0.48 | 0.05 | 98 | 1013.2 |
| 20260505005651 | 54 | 235 | 1.0 | 2.0 | 0.02 | 0.48 | 0.05 | 98 | 1013.2 |
| 20260505005529 | 54 | 245 | 1.0 | 2.0 | 0.02 | 0.48 | 0.05 | 98 | 1013.3 |
| 20260505005331 | 54 | 239 | 1.0 | 2.0 | 0.02 | 0.48 | 0.05 | 98 | 1013.3 |
| 20260505005008 | 54 | 236 | 0.0 | 2.0 | 0.02 | 0.48 | 0.05 | 98 | 1013.2 |
| 20260505004441 | 54 | 243 | 0.0 | 0.0 | 0.02 | 0.48 | 0.05 | 98 | 1013.2 |
| 20260505004102 | 54 | 243 | 0.0 | 0.0 | 0.02 | 0.49 | 0.05 | 98 | 1013.2 |
| 20260505003857 | 54 | 243 | 0.0 | 0.0 | 0.02 | 0.49 | 0.05 | 98 | 1013.3 |
| 20260505003819 | 54 | 243 | 0.0 | 0.0 | 0.02 | 0.49 | 0.05 | 98 | 1013.2 |
| 20260505003748 | 54 | 243 | 0.0 | 0.0 | 0.02 | 0.49 | 0.05 | 98 | 1013.3 |
| 20260505003300 | 55 | 264 | 0.0 | 0.0 | 0.02 | 0.49 | 0.45 | 95 | 1014.0 |
| 20260505003216 | 54 | 243 | 0.0 | 0.0 | 0.02 | 0.49 | 0.05 | 98 | 1013.3 |
| 20260505003101 | 54 | 243 | 0.0 | 0.0 | 0.02 | 0.49 | 0.05 | 98 | 1013.3 |
| 20260505002915 | 55 | 264 | 0.0 | 0.0 | 0.03 | 0.49 | 0.45 | 95 | 1013.8 |
| 20260505002809 | 54 | 243 | 0.0 | 0.0 | 0.02 | 0.49 | 0.05 | 98 | 1013.3 |
| 20260505002723 | 54 | 243 | 0.0 | 0.0 | 0.02 | 0.48 | 0.05 | 98 | 1013.3 |
| 20260505002637 | 54 | 243 | 0.0 | 0.0 | 0.02 | 0.48 | 0.04 | 98 | 1013.3 |
| 20260505002405 | 54 | 243 | 0.0 | 0.0 | 0.02 | 0.48 | 0.04 | 98 | 1013.3 |
| 20260505002232 | 54 | 243 | 0.0 | 0.0 | 0.02 | 0.48 | 0.04 | 98 | 1013.4 |
| 20260505002119 | 54 | 243 | 0.0 | 0.0 | 0.02 | 0.48 | 0.04 | 98 | 1013.4 |
| 20260505001938 | 54 | 243 | 0.0 | 0.0 | 0.02 | 0.48 | 0.04 | 98 | 1013.4 |
| 20260505001902 | 54 | 243 | 0.0 | 0.0 | 0.02 | 0.48 | 0.04 | 98 | 1013.4 |
| 20260505001826 | 54 | 243 | 0.0 | 0.0 | 0.02 | 0.48 | 0.04 | 98 | 1013.4 |
| 20260505001329 | 54 | 243 | 0.0 | 0.0 | 0.02 | 0.49 | 0.04 | 98 | 1013.4 |
| 20260505001237 | 54 | 243 | 0.0 | 0.0 | 0.02 | 0.49 | 0.04 | 98 | 1013.5 |
| 20260505001126 | 54 | 243 | 0.0 | 0.0 | 0.02 | 0.49 | 0.04 | 98 | 1013.6 |
| 20260505001103 | 54 | 243 | 0.0 | 0.0 | 0.02 | 0.49 | 0.04 | 98 | 1013.6 |
| 20260505001029 | 54 | 243 | 0.0 | 0.0 | 0.02 | 0.49 | 0.04 | 98 | 1013.6 |
| 20260505000631 | 54 | 243 | 0.0 | 0.0 | 0.02 | 0.49 | 0.04 | 98 | 1013.5 |
| 20260505000326 | 54 | 243 | 0.0 | 0.0 | 0.02 | 0.49 | 0.04 | 98 | 1013.6 |
| 20260505000117 | 54 | 243 | 0.0 | 0.0 | 0.02 | 0.48 | 0.03 | 98 | 1013.6 |
| 20260504235633 | 54 | 243 | 0.0 | 0.0 | 0.02 | 0.48 | 0.03 | 98 | 1013.7 |
| 20260504235549 | 54 | 243 | 0.0 | 0.0 | 0.02 | 0.48 | 0.03 | 98 | 1013.7 |
| 20260504234920 | 55 | 264 | 0.0 | 2.0 | 0.02 | 0.48 | 0.44 | 94 | 1013.7 |
| 20260504234713 | 54 | 243 | 0.0 | 0.0 | 0.02 | 0.48 | 0.03 | 98 | 1013.7 |
| 20260504234604 | 54 | 243 | 0.0 | 0.0 | 0.02 | 0.49 | 0.03 | 98 | 1013.7 |
| 20260504234359 | 54 | 243 | 0.0 | 0.0 | 0.02 | 0.49 | 0.03 | 98 | 1013.8 |
| 20260504234315 | 54 | 243 | 0.0 | 0.0 | 0.02 | 0.49 | 0.03 | 98 | 1013.7 |
| 20260504234251 | 54 | 243 | 0.0 | 0.0 | 0.02 | 0.49 | 0.03 | 98 | 1013.7 |
| 20260504234157 | 54 | 243 | 0.0 | 0.0 | 0.02 | 0.49 | 0.03 | 98 | 1013.8 |
| 20260504234012 | 54 | 243 | 0.0 | 0.0 | 0.02 | 0.49 | 0.03 | 98 | 1013.7 |
| 20260504233659 | 54 | 243 | 0.0 | 0.0 | 0.02 | 0.49 | 0.03 | 98 | 1013.7 |
| 20260504233450 | 54 | 243 | 0.0 | 0.0 | 0.02 | 0.49 | 0.03 | 98 | 1013.6 |
| 20260504233407 | 54 | 243 | 0.0 | 0.0 | 0.02 | 0.49 | 0.03 | 98 | 1013.7 |
| 20260504233030 | 54 | 243 | 0.0 | 0.0 | 0.02 | 0.48 | 0.02 | 98 | 1013.7 |
| 20260504232758 | 55 | 264 | 0.0 | 2.0 | 0.02 | 0.48 | 0.44 | 94 | 1013.6 |
| 20260504232738 | 54 | 243 | 0.0 | 0.0 | 0.02 | 0.48 | 0.02 | 98 | 1013.7 |
| 20260504232706 | 54 | 243 | 0.0 | 0.0 | 0.02 | 0.48 | 0.02 | 98 | 1013.7 |
| 20260504232623 | 56 | 231 | 0.0 | 0.0 | 0.03 | 0.49 | 0.44 | 94 | 1013.4 |
| 20260504232555 | 54 | 243 | 0.0 | 0.0 | 0.02 | 0.48 | 0.02 | 98 | 1013.7 |
| 20260504232407 | 54 | 243 | 0.0 | 0.0 | 0.02 | 0.48 | 0.02 | 98 | 1013.7 |
| 20260504232327 | 54 | 243 | 0.0 | 0.0 | 0.02 | 0.49 | 0.02 | 98 | 1013.6 |
| 20260504232307 | 54 | 243 | 0.0 | 0.0 | 0.02 | 0.49 | 0.02 | 98 | 1013.7 |
| 20260504232153 | 54 | 243 | 0.0 | 0.0 | 0.02 | 0.49 | 0.02 | 98 | 1013.7 |
| 20260504231955 | 54 | 243 | 0.0 | 0.0 | 0.02 | 0.49 | 0.02 | 98 | 1013.6 |
| 20260504231502 | 54 | 243 | 0.0 | 0.0 | 0.02 | 0.49 | 0.02 | 98 | 1013.7 |
| 20260504231159 | 54 | 243 | 0.0 | 0.0 | 0.02 | 0.49 | 0.02 | 98 | 1013.7 |
| 20260504231032 | 54 | 243 | 0.0 | 0.0 | 0.02 | 0.49 | 0.02 | 98 | 1013.6 |
| 20260504230937 | 54 | 243 | 0.0 | 0.0 | 0.02 | 0.49 | 0.02 | 98 | 1013.7 |
| 20260504230905 | 54 | 243 | 0.0 | 0.0 | 0.02 | 0.48 | 0.02 | 98 | 1013.8 |
| 20260504230655 | 54 | 243 | 0.0 | 0.0 | 0.02 | 0.48 | 0.02 | 98 | 1013.7 |
| 20260504230626 | 54 | 243 | 0.0 | 0.0 | 0.02 | 0.48 | 0.02 | 98 | 1013.7 |
| 20260504230203 | 54 | 243 | 0.0 | 0.0 | 0.02 | 0.49 | 0.02 | 98 | 1013.8 |
| 20260504230100 | 54 | 243 | 0.0 | 0.0 | 0.02 | 0.49 | 0.02 | 98 | 1013.8 |
| 20260504225614 | 54 | 243 | 0.0 | 0.0 | 0.02 | 0.49 | 0.02 | 98 | 1013.8 |
| 20260504225545 | 54 | 243 | 0.0 | 0.0 | 0.02 | 0.49 | 0.02 | 98 | 1013.9 |
| 20260504225519 | 54 | 243 | 0.0 | 0.0 | 0.02 | 0.49 | 0.02 | 98 | 1013.8 |
| 20260504224610 | 54 | 243 | 0.0 | 0.0 | 0.02 | 0.49 | 0.02 | 97 | 1013.9 |
| 20260504224429 | 54 | 243 | 0.0 | 0.0 | 0.02 | 0.49 | 0.02 | 97 | 1013.9 |
| 20260504224402 | 54 | 243 | 0.0 | 0.0 | 0.02 | 0.49 | 0.02 | 97 | 1013.9 |
| 20260504224339 | 54 | 243 | 0.0 | 0.0 | 0.02 | 0.49 | 0.02 | 97 | 1013.9 |
| 20260504224230 | 54 | 243 | 0.0 | 0.0 | 0.02 | 0.48 | 0.01 | 97 | 1013.9 |
| 20260504224054 | 54 | 243 | 0.0 | 0.0 | 0.02 | 0.49 | 0.01 | 97 | 1014.0 |
| 20260504223748 | 54 | 243 | 0.0 | 0.0 | 0.02 | 0.49 | 0.01 | 97 | 1013.9 |
| 20260504223341 | 54 | 243 | 0.0 | 0.0 | 0.02 | 0.49 | 0.01 | 97 | 1014.0 |
| 20260504223326 | 54 | 243 | 0.0 | 0.0 | 0.02 | 0.49 | 0.01 | 97 | 1014.0 |
| 20260504222806 | 56 | 231 | 0.0 | 4.0 | 0.02 | 0.48 | 0.43 | 93 | 1013.4 |
| 20260504222710 | 54 | 243 | 0.0 | 0.0 | 0.02 | 0.49 | 0.01 | 97 | 1014.0 |
| 20260504222531 | 54 | 243 | 0.0 | 0.0 | 0.02 | 0.49 | 0.01 | 97 | 1014.1 |
| 20260504222322 | 54 | 243 | 0.0 | 0.0 | 0.02 | 0.49 | 0.01 | 97 | 1014.0 |
| 20260504222222 | 54 | 243 | 0.0 | 0.0 | 0.02 | 0.49 | 0.01 | 97 | 1014.0 |
| 20260504222154 | 54 | 243 | 0.0 | 0.0 | 0.02 | 0.49 | 0.01 | 97 | 1014.1 |
| 20260504222048 | 54 | 243 | 0.0 | 0.0 | 0.02 | 0.49 | 0.01 | 97 | 1014.1 |
| 20260504221917 | 54 | 243 | 0.0 | 0.0 | 0.02 | 0.49 | 0.01 | 97 | 1014.1 |
| 20260504221751 | 54 | 243 | 0.0 | 0.0 | 0.02 | 0.49 | 0.00 | 97 | 1014.2 |
| 20260504221607 | 55 | 243 | 0.0 | 0.0 | 0.02 | 0.49 | 0.00 | 97 | 1014.1 |
| 20260504221539 | 55 | 243 | 0.0 | 0.0 | 0.02 | 0.49 | 0.00 | 97 | 1014.2 |
| 20260504221202 | 55 | 243 | 0.0 | 2.0 | 0.02 | 0.49 | 0.00 | 97 | 1014.2 |
| 20260504220736 | 55 | 243 | 0.0 | 2.0 | 0.02 | 0.49 | 0.00 | 97 | 1014.2 |
| 20260504220612 | 55 | 243 | 0.0 | 2.0 | 0.02 | 0.49 | 0.00 | 97 | 1014.3 |
| 20260504220440 | 55 | 243 | 0.0 | 2.0 | 0.02 | 0.49 | 0.00 | 97 | 1014.3 |
| 20260504220410 | 55 | 243 | 0.0 | 2.0 | 0.02 | 0.49 | 0.00 | 97 | 1014.2 |
| 20260504220009 | 55 | 273 | 0.0 | 1.0 | 0.02 | 0.49 | 0.49 | 97 | 1014.2 |
| 20260504215728 | 55 | 250 | 0.0 | 0.0 | 0.02 | 0.49 | 0.49 | 97 | 1014.2 |
| 20260504215719 | 55 | 250 | 0.0 | 0.0 | 0.02 | 0.49 | 0.49 | 97 | 1014.3 |
| 20260504215613 | 55 | 250 | 0.0 | 0.0 | 0.02 | 0.49 | 0.49 | 97 | 1014.3 |
| 20260504215429 | 55 | 250 | 0.0 | 0.0 | 0.02 | 0.49 | 0.48 | 97 | 1014.3 |
| 20260504215406 | 55 | 250 | 0.0 | 0.0 | 0.02 | 0.49 | 0.48 | 97 | 1014.4 |
| 20260504215338 | 55 | 250 | 0.0 | 0.0 | 0.02 | 0.49 | 0.48 | 97 | 1014.4 |
| 20260504214704 | 55 | 250 | 0.0 | 0.0 | 0.02 | 0.49 | 0.48 | 97 | 1014.4 |
| 20260504214644 | 55 | 250 | 0.0 | 0.0 | 0.02 | 0.49 | 0.48 | 97 | 1014.4 |
| 20260504214502 | 55 | 250 | 0.0 | 0.0 | 0.02 | 0.49 | 0.48 | 97 | 1014.5 |
| 20260504214250 | 55 | 250 | 0.0 | 0.0 | 0.02 | 0.49 | 0.48 | 97 | 1014.5 |
| 20260504214227 | 55 | 250 | 0.0 | 0.0 | 0.02 | 0.49 | 0.48 | 97 | 1014.4 |
| 20260504214141 | 55 | 250 | 0.0 | 0.0 | 0.02 | 0.49 | 0.48 | 97 | 1014.5 |
| 20260504213917 | 55 | 250 | 0.0 | 0.0 | 0.02 | 0.49 | 0.48 | 97 | 1014.5 |
| 20260504213848 | 55 | 250 | 0.0 | 0.0 | 0.02 | 0.49 | 0.48 | 97 | 1014.4 |
| 20260504213528 | 55 | 250 | 0.0 | 0.0 | 0.02 | 0.49 | 0.48 | 97 | 1014.5 |
| 20260504213341 | 55 | 250 | 0.0 | 0.0 | 0.02 | 0.50 | 0.48 | 97 | 1014.5 |
| 20260504213230 | 55 | 250 | 0.0 | 0.0 | 0.02 | 0.49 | 0.47 | 97 | 1014.5 |
| 20260504213043 | 55 | 250 | 0.0 | 0.0 | 0.02 | 0.49 | 0.47 | 97 | 1014.5 |
| 20260504213017 | 55 | 250 | 0.0 | 0.0 | 0.02 | 0.49 | 0.47 | 97 | 1014.5 |
| 20260504212952 | 55 | 250 | 0.0 | 0.0 | 0.02 | 0.49 | 0.47 | 97 | 1014.5 |
| 20260504212845 | 55 | 250 | 0.0 | 0.0 | 0.02 | 0.49 | 0.47 | 97 | 1014.4 |
| 20260504212648 | 55 | 250 | 0.0 | 0.0 | 0.02 | 0.49 | 0.47 | 97 | 1014.5 |
| 20260504212606 | 55 | 250 | 0.0 | 0.0 | 0.02 | 0.49 | 0.47 | 97 | 1014.5 |
| 20260504212536 | 55 | 250 | 0.0 | 0.0 | 0.02 | 0.49 | 0.47 | 97 | 1014.5 |
| 20260504212232 | 55 | 250 | 0.0 | 0.0 | 0.02 | 0.49 | 0.47 | 97 | 1014.5 |
| 20260504212136 | 55 | 250 | 0.0 | 2.0 | 0.02 | 0.49 | 0.47 | 97 | 1014.4 |
| 20260504212024 | 55 | 250 | 0.0 | 2.0 | 0.02 | 0.50 | 0.47 | 96 | 1014.5 |
| 20260504211622 | 55 | 250 | 0.0 | 2.0 | 0.02 | 0.49 | 0.46 | 96 | 1014.6 |
| 20260504211553 | 55 | 250 | 1.0 | 2.0 | 0.02 | 0.49 | 0.46 | 96 | 1014.5 |
| 20260504211522 | 55 | 250 | 1.0 | 2.0 | 0.02 | 0.49 | 0.46 | 96 | 1014.5 |
| 20260504211342 | 55 | 249 | 1.0 | 2.0 | 0.02 | 0.49 | 0.46 | 96 | 1014.5 |
| 20260504211207 | 55 | 264 | 1.0 | 2.0 | 0.02 | 0.49 | 0.46 | 96 | 1014.5 |
| 20260504211054 | 55 | 264 | 1.0 | 2.0 | 0.02 | 0.49 | 0.46 | 96 | 1014.5 |
| 20260504210952 | 55 | 264 | 0.0 | 1.0 | 0.02 | 0.49 | 0.46 | 96 | 1014.5 |
| 20260504210911 | 55 | 264 | 0.0 | 0.0 | 0.02 | 0.49 | 0.46 | 96 | 1014.5 |
| 20260504210847 | 55 | 264 | 0.0 | 0.0 | 0.02 | 0.49 | 0.46 | 96 | 1014.4 |
| 20260504210758 | 55 | 264 | 0.0 | 0.0 | 0.02 | 0.49 | 0.46 | 96 | 1014.4 |
| 20260504210455 | 55 | 264 | 0.0 | 0.0 | 0.02 | 0.49 | 0.46 | 96 | 1014.4 |
| 20260504210401 | 55 | 264 | 0.0 | 0.0 | 0.03 | 0.49 | 0.46 | 96 | 1014.3 |
| 20260504210306 | 55 | 264 | 0.0 | 0.0 | 0.02 | 0.48 | 0.46 | 96 | 1014.3 |
| 20260504210243 | 55 | 264 | 0.0 | 0.0 | 0.02 | 0.49 | 0.46 | 96 | 1014.4 |
| 20260504210220 | 55 | 264 | 0.0 | 0.0 | 0.02 | 0.49 | 0.46 | 96 | 1014.3 |
| 20260504210121 | 55 | 264 | 0.0 | 0.0 | 0.02 | 0.49 | 0.46 | 96 | 1014.2 |
| 20260504210032 | 55 | 264 | 0.0 | 0.0 | 0.02 | 0.49 | 0.46 | 96 | 1014.3 |
| 20260504205945 | 55 | 264 | 0.0 | 0.0 | 0.02 | 0.49 | 0.46 | 96 | 1014.3 |
| 20260504205910 | 55 | 264 | 0.0 | 0.0 | 0.02 | 0.49 | 0.46 | 96 | 1014.3 |
| 20260504205606 | 55 | 264 | 0.0 | 0.0 | 0.02 | 0.49 | 0.46 | 95 | 1014.2 |
| 20260504205525 | 55 | 264 | 0.0 | 0.0 | 0.02 | 0.49 | 0.46 | 95 | 1014.2 |
| 20260504205434 | 55 | 264 | 0.0 | 0.0 | 0.03 | 0.49 | 0.46 | 95 | 1014.2 |
| 20260504205339 | 55 | 264 | 0.0 | 0.0 | 0.03 | 0.49 | 0.46 | 95 | 1014.2 |
| 20260504205018 | 55 | 264 | 0.0 | 0.0 | 0.02 | 0.48 | 0.45 | 95 | 1014.2 |
| 20260504204955 | 55 | 264 | 0.0 | 0.0 | 0.02 | 0.48 | 0.45 | 95 | 1014.1 |
| 20260504204904 | 55 | 264 | 0.0 | 0.0 | 0.02 | 0.48 | 0.45 | 95 | 1014.1 |
| 20260504204825 | 55 | 264 | 0.0 | 0.0 | 0.02 | 0.49 | 0.45 | 95 | 1014.1 |
| 20260504204447 | 55 | 264 | 0.0 | 0.0 | 0.02 | 0.49 | 0.45 | 95 | 1014.0 |
| 20260504204420 | 55 | 264 | 0.0 | 0.0 | 0.02 | 0.49 | 0.45 | 95 | 1014.0 |
| 20260504204356 | 55 | 264 | 0.0 | 0.0 | 0.02 | 0.49 | 0.45 | 95 | 1013.9 |
| 20260504204316 | 55 | 264 | 0.0 | 0.0 | 0.03 | 0.49 | 0.45 | 95 | 1013.8 |
| 20260504204240 | 55 | 264 | 0.0 | 0.0 | 0.03 | 0.49 | 0.45 | 95 | 1013.8 |
| 20260504203927 | 55 | 264 | 0.0 | 0.0 | 0.02 | 0.48 | 0.45 | 95 | 1013.8 |
| 20260504203808 | 55 | 264 | 0.0 | 0.0 | 0.02 | 0.48 | 0.44 | 94 | 1013.7 |
| 20260504203502 | 55 | 264 | 0.0 | 2.0 | 0.02 | 0.48 | 0.44 | 94 | 1013.7 |
| 20260504203404 | 55 | 264 | 0.0 | 2.0 | 0.02 | 0.48 | 0.44 | 94 | 1013.7 |
| 20260504202750 | 56 | 264 | 0.0 | 2.0 | 0.02 | 0.48 | 0.44 | 94 | 1013.6 |
| 20260504202644 | 56 | 264 | 0.0 | 2.0 | 0.02 | 0.48 | 0.44 | 94 | 1013.6 |
| 20260504202548 | 56 | 231 | 0.0 | 0.0 | 0.03 | 0.48 | 0.44 | 94 | 1013.6 |
| 20260504202522 | 56 | 231 | 0.0 | 0.0 | 0.03 | 0.48 | 0.44 | 94 | 1013.6 |
| 20260504202428 | 56 | 231 | 0.0 | 0.0 | 0.03 | 0.49 | 0.44 | 94 | 1013.5 |
| 20260504202130 | 56 | 231 | 0.0 | 0.0 | 0.03 | 0.49 | 0.44 | 94 | 1013.4 |
| 20260504202031 | 56 | 231 | 0.0 | 3.0 | 0.02 | 0.48 | 0.43 | 93 | 1013.5 |
| 20260504201700 | 56 | 231 | 0.0 | 4.0 | 0.02 | 0.48 | 0.43 | 93 | 1013.3 |
| 20260504201645 | 56 | 231 | 0.0 | 4.0 | 0.02 | 0.48 | 0.43 | 93 | 1013.4 |
| 20260504201607 | 56 | 231 | 0.0 | 7.0 | 0.02 | 0.48 | 0.43 | 93 | 1013.3 |
| 20260504201507 | 56 | 231 | 2.0 | 7.0 | 0.02 | 0.48 | 0.43 | 93 | 1013.2 |
| 20260504201350 | 56 | 250 | 2.0 | 7.0 | 0.03 | 0.48 | 0.43 | 93 | 1013.2 |
| 20260504201215 | 56 | 247 | 3.0 | 7.0 | 0.03 | 0.48 | 0.43 | 93 | 1013.2 |
| 20260504201124 | 56 | 242 | 4.0 | 7.0 | 0.03 | 0.48 | 0.43 | 93 | 1013.3 |
| 20260504201039 | 56 | 257 | 3.0 | 7.0 | 0.03 | 0.48 | 0.43 | 93 | 1013.2 |
| 20260504200853 | 56 | 274 | 4.0 | 7.0 | 0.03 | 0.48 | 0.43 | 93 | 1013.3 |
| 20260504200706 | 56 | 252 | 3.0 | 6.0 | 0.02 | 0.47 | 0.43 | 93 | 1013.3 |
| 20260504200513 | 56 | 253 | 4.0 | 6.0 | 0.02 | 0.47 | 0.43 | 93 | 1013.3 |
| 20260504200340 | 56 | 274 | 2.0 | 9.0 | 0.02 | 0.47 | 0.43 | 94 | 1013.2 |
| 20260504200239 | 56 | 270 | 2.0 | 9.0 | 0.02 | 0.48 | 0.43 | 94 | 1013.2 |
| 20260504195751 | 56 | 238 | 2.0 | 9.0 | 0.02 | 0.48 | 0.43 | 94 | 1013.2 |
| 20260504195612 | 56 | 243 | 4.0 | 9.0 | 0.03 | 0.48 | 0.43 | 94 | 1013.1 |
| 20260504195430 | 56 | 252 | 4.0 | 9.0 | 0.03 | 0.48 | 0.43 | 94 | 1013.2 |
| 20260504195249 | 56 | 269 | 2.0 | 7.0 | 0.03 | 0.48 | 0.43 | 94 | 1013.1 |
| 20260504195146 | 56 | 238 | 2.0 | 4.0 | 0.03 | 0.48 | 0.43 | 94 | 1013.2 |
| 20260504195059 | 56 | 234 | 2.0 | 4.0 | 0.02 | 0.47 | 0.43 | 94 | 1013.2 |
| 20260504194923 | 56 | 249 | 2.0 | 4.0 | 0.02 | 0.47 | 0.42 | 94 | 1013.1 |
| 20260504194731 | 56 | 244 | 2.0 | 4.0 | 0.02 | 0.47 | 0.42 | 94 | 1013.2 |
| 20260504194226 | 56 | 255 | 3.0 | 6.0 | 0.02 | 0.47 | 0.42 | 94 | 1013.2 |
| 20260504193749 | 56 | 248 | 3.0 | 6.0 | 0.03 | 0.47 | 0.42 | 94 | 1013.1 |
| 20260504193607 | 56 | 238 | 2.0 | 6.0 | 0.03 | 0.47 | 0.42 | 94 | 1013.1 |
| 20260504193146 | 56 | 246 | 2.0 | 9.0 | 0.03 | 0.47 | 0.42 | 94 | 1013.0 |
| 20260504193057 | 56 | 257 | 2.0 | 9.0 | 0.02 | 0.46 | 0.41 | 94 | 1013.0 |
| 20260504193005 | 56 | 229 | 2.0 | 9.0 | 0.02 | 0.47 | 0.41 | 94 | 1013.1 |
| 20260504192826 | 56 | 232 | 3.0 | 9.0 | 0.02 | 0.47 | 0.41 | 94 | 1013.1 |
| 20260504192417 | 56 | 239 | 3.0 | 9.0 | 0.02 | 0.47 | 0.41 | 94 | 1013.1 |
| 20260504191955 | 56 | 249 | 4.0 | 9.0 | 0.02 | 0.47 | 0.41 | 94 | 1013.1 |
| 20260504191904 | 56 | 265 | 2.0 | 9.0 | 0.03 | 0.47 | 0.41 | 94 | 1013.2 |
| 20260504191723 | 56 | 223 | 4.0 | 9.0 | 0.03 | 0.47 | 0.41 | 94 | 1013.1 |
| 20260504191335 | 56 | 264 | 2.0 | 9.0 | 0.03 | 0.47 | 0.41 | 94 | 1013.1 |
| 20260504191146 | 56 | 271 | 2.0 | 9.0 | 0.02 | 0.46 | 0.40 | 94 | 1013.1 |
| 20260504191004 | 56 | 287 | 2.0 | 9.0 | 0.02 | 0.46 | 0.40 | 94 | 1013.1 |
| 20260504190618 | 56 | 237 | 4.0 | 9.0 | 0.02 | 0.46 | 0.40 | 94 | 1013.2 |
| 20260504190431 | 56 | 288 | 6.0 | 11.0 | 0.02 | 0.46 | 0.40 | 94 | 1013.2 |
| 20260504190237 | 56 | 295 | 7.0 | 11.0 | 0.02 | 0.46 | 0.40 | 94 | 1013.1 |
| 20260504190049 | 56 | 264 | 5.0 | 11.0 | 0.02 | 0.46 | 0.40 | 94 | 1013.1 |
| 20260504185912 | 56 | 272 | 8.0 | 11.0 | 0.02 | 0.46 | 0.40 | 94 | 1013.1 |
| 20260504185811 | 56 | 277 | 7.0 | 11.0 | 0.03 | 0.46 | 0.40 | 93 | 1013.0 |
| 20260504185724 | 56 | 287 | 6.0 | 11.0 | 0.03 | 0.47 | 0.40 | 93 | 1013.1 |
| 20260504185534 | 56 | 301 | 6.0 | 11.0 | 0.03 | 0.47 | 0.40 | 94 | 1013.0 |
| 20260504185347 | 56 | 248 | 7.0 | 11.0 | 0.02 | 0.46 | 0.40 | 94 | 1013.0 |
| 20260504185155 | 56 | 284 | 7.0 | 11.0 | 0.02 | 0.46 | 0.39 | 93 | 1013.1 |
| 20260504185011 | 56 | 296 | 6.0 | 11.0 | 0.02 | 0.46 | 0.39 | 93 | 1013.0 |
| 20260504184919 | 56 | 290 | 7.0 | 10.0 | 0.02 | 0.46 | 0.39 | 93 | 1013.1 |
| 20260504184827 | 56 | 267 | 6.0 | 14.0 | 0.02 | 0.46 | 0.39 | 93 | 1013.2 |
| 20260504184635 | 56 | 265 | 7.0 | 14.0 | 0.02 | 0.46 | 0.39 | 93 | 1013.2 |
| 20260504184458 | 56 | 278 | 7.0 | 14.0 | 0.02 | 0.46 | 0.39 | 93 | 1013.1 |
| 20260504184450 | 56 | 278 | 7.0 | 14.0 | 0.02 | 0.46 | 0.39 | 93 | 1013.1 |
| 20260504184305 | 56 | 306 | 7.0 | 14.0 | 0.03 | 0.46 | 0.39 | 93 | 1013.1 |
| 20260504183943 | 56 | 292 | 9.0 | 14.0 | 0.03 | 0.46 | 0.39 | 93 | 1013.2 |
| 20260504183900 | 56 | 292 | 8.0 | 11.0 | 0.03 | 0.46 | 0.39 | 93 | 1013.1 |
| 20260504183121 | 57 | 263 | 4.0 | 9.0 | 0.02 | 0.46 | 0.39 | 94 | 1013.2 |
| 20260504182946 | 57 | 255 | 6.0 | 9.0 | 0.02 | 0.46 | 0.39 | 94 | 1013.2 |
| 20260504182845 | 57 | 261 | 6.0 | 9.0 | 0.02 | 0.46 | 0.39 | 94 | 1013.0 |
| 20260504182800 | 57 | 269 | 6.0 | 9.0 | 0.02 | 0.46 | 0.39 | 94 | 1013.2 |
| 20260504182617 | 57 | 275 | 6.0 | 9.0 | 0.02 | 0.46 | 0.39 | 94 | 1013.1 |
| 20260504182447 | 57 | 275 | 4.0 | 10.0 | 0.03 | 0.46 | 0.39 | 94 | 1013.1 |
| 20260504182421 | 57 | 290 | 4.0 | 10.0 | 0.03 | 0.46 | 0.39 | 94 | 1013.1 |
| 20260504182304 | 57 | 301 | 3.0 | 11.0 | 0.03 | 0.46 | 0.39 | 94 | 1013.2 |
| 20260504181836 | 57 | 273 | 6.0 | 11.0 | 0.03 | 0.46 | 0.39 | 94 | 1013.1 |
| 20260504181801 | 57 | 277 | 6.0 | 11.0 | 0.02 | 0.46 | 0.39 | 94 | 1013.2 |
| 20260504181618 | 56 | 288 | 8.0 | 11.0 | 0.02 | 0.46 | 0.38 | 94 | 1013.2 |
| 20260504181425 | 56 | 290 | 7.0 | 11.0 | 0.02 | 0.46 | 0.38 | 94 | 1013.2 |
| 20260504181354 | 56 | 276 | 7.0 | 10.0 | 0.02 | 0.46 | 0.38 | 94 | 1013.2 |
| 20260504181232 | 57 | 292 | 4.0 | 10.0 | 0.02 | 0.46 | 0.38 | 94 | 1013.2 |
| 20260504181034 | 57 | 265 | 5.0 | 9.0 | 0.02 | 0.46 | 0.38 | 94 | 1013.3 |
| 20260504180914 | 57 | 265 | 5.0 | 11.0 | 0.02 | 0.46 | 0.38 | 94 | 1013.3 |
| 20260504180843 | 57 | 269 | 5.0 | 11.0 | 0.02 | 0.46 | 0.38 | 94 | 1013.3 |
| 20260504180705 | 57 | 234 | 6.0 | 11.0 | 0.02 | 0.46 | 0.38 | 94 | 1013.2 |
| 20260504175846 | 57 | 253 | 5.0 | 10.0 | 0.02 | 0.46 | 0.37 | 94 | 1013.1 |
| 20260504175654 | 57 | 242 | 4.0 | 10.0 | 0.02 | 0.46 | 0.37 | 94 | 1013.1 |
| 20260504175320 | 57 | 244 | 3.0 | 10.0 | 0.02 | 0.46 | 0.37 | 94 | 1013.2 |
| 20260504175202 | 57 | 269 | 3.0 | 10.0 | 0.02 | 0.46 | 0.37 | 94 | 1013.2 |
| 20260504175021 | 57 | 238 | 3.0 | 10.0 | 0.02 | 0.46 | 0.37 | 94 | 1013.2 |
| 20260504174903 | 57 | 266 | 2.0 | 8.0 | 0.02 | 0.46 | 0.37 | 94 | 1013.2 |
| 20260504174838 | 57 | 237 | 3.0 | 9.0 | 0.02 | 0.46 | 0.37 | 94 | 1013.2 |
| 20260504174649 | 57 | 254 | 4.0 | 9.0 | 0.02 | 0.46 | 0.37 | 94 | 1013.2 |
| 20260504174225 | 57 | 236 | 4.0 | 9.0 | 0.02 | 0.45 | 0.37 | 94 | 1013.1 |
| 20260504174051 | 57 | 236 | 6.0 | 9.0 | 0.02 | 0.45 | 0.36 | 94 | 1013.1 |
| 20260504173929 | 57 | 268 | 5.0 | 9.0 | 0.02 | 0.45 | 0.36 | 94 | 1013.1 |
| 20260504173902 | 57 | 253 | 4.0 | 8.0 | 0.02 | 0.45 | 0.36 | 94 | 1013.2 |
| 20260504173710 | 57 | 275 | 3.0 | 10.0 | 0.02 | 0.46 | 0.36 | 93 | 1013.1 |
| 20260504173407 | 57 | 244 | 2.0 | 10.0 | 0.02 | 0.46 | 0.36 | 93 | 1013.2 |
| 20260504173256 | 57 | 235 | 3.0 | 10.0 | 0.02 | 0.46 | 0.36 | 93 | 1013.2 |
| 20260504172728 | 57 | 265 | 5.0 | 13.0 | 0.03 | 0.46 | 0.36 | 93 | 1013.0 |
| 20260504172329 | 57 | 240 | 3.0 | 13.0 | 0.02 | 0.45 | 0.36 | 93 | 1013.1 |
| 20260504172211 | 57 | 231 | 3.0 | 13.0 | 0.02 | 0.45 | 0.35 | 93 | 1013.1 |
| 20260504172021 | 57 | 248 | 6.0 | 13.0 | 0.02 | 0.45 | 0.35 | 93 | 1013.0 |
| 20260504171903 | 57 | 233 | 8.0 | 13.0 | 0.02 | 0.45 | 0.35 | 93 | 1013.0 |
| 20260504171837 | 57 | 263 | 4.0 | 13.0 | 0.02 | 0.45 | 0.35 | 93 | 1013.1 |
| 20260504171641 | 57 | 246 | 3.0 | 12.0 | 0.02 | 0.45 | 0.35 | 93 | 1013.0 |
| 20260504171511 | 57 | 221 | 7.0 | 12.0 | 0.02 | 0.45 | 0.35 | 93 | 1013.0 |
| 20260504171437 | 57 | 241 | 7.0 | 12.0 | 0.02 | 0.45 | 0.35 | 93 | 1013.0 |
| 20260504171314 | 57 | 261 | 4.0 | 12.0 | 0.02 | 0.46 | 0.35 | 93 | 1013.0 |
| 20260504170905 | 57 | 268 | 4.0 | 12.0 | 0.02 | 0.46 | 0.35 | 93 | 1012.9 |
| 20260504170721 | 57 | 236 | 6.0 | 14.0 | 0.02 | 0.46 | 0.35 | 93 | 1012.7 |
| 20260504170431 | 57 | 289 | 6.0 | 14.0 | 0.02 | 0.45 | 0.35 | 93 | 1012.7 |
| 20260504170313 | 57 | 282 | 6.0 | 14.0 | 0.02 | 0.45 | 0.35 | 93 | 1012.7 |
| 20260504151011 | 58 | 267 | 11.0 | 18.0 | 0.03 | 0.44 | 0.31 | 91 | 1012.6 |
| 20260504150833 | 58 | 252 | 11.0 | 18.0 | 0.03 | 0.44 | 0.31 | 91 | 1012.5 |
| 20260504150829 | 58 | 252 | 11.0 | 18.0 | 0.03 | 0.44 | 0.31 | 91 | 1012.5 |
| 20260504150637 | 58 | 306 | 11.0 | 18.0 | 0.02 | 0.43 | 0.30 | 91 | 1012.5 |
| 20260504150204 | 58 | 309 | 12.0 | 17.0 | 0.02 | 0.43 | 0.30 | 90 | 1012.6 |
| 20260504141211 | 59 | 267 | 10.0 | 18.0 | 0.02 | 0.43 | 0.28 | 92 | 1012.4 |
| 20260504141044 | 59 | 295 | 11.0 | 18.0 | 0.02 | 0.43 | 0.28 | 93 | 1012.4 |
| 20260504140903 | 59 | 292 | 11.0 | 18.0 | 0.02 | 0.43 | 0.28 | 92 | 1012.4 |
| 20260504140743 | 59 | 272 | 10.0 | 16.0 | 0.02 | 0.43 | 0.28 | 93 | 1012.4 |
| 20260504140710 | 59 | 295 | 10.0 | 16.0 | 0.03 | 0.43 | 0.28 | 93 | 1012.5 |
| 20260504140525 | 59 | 295 | 9.0 | 16.0 | 0.03 | 0.43 | 0.28 | 93 | 1012.5 |
| 20260504140336 | 59 | 294 | 10.0 | 16.0 | 0.03 | 0.43 | 0.28 | 93 | 1012.4 |
| 20260504140303 | 59 | 305 | 11.0 | 16.0 | 0.03 | 0.43 | 0.28 | 93 | 1012.3 |
| 20260504130642 | 58 | 298 | 4.0 | 9.0 | 0.02 | 0.41 | 0.25 | 97 | 1012.3 |
| 20260504130612 | 58 | 274 | 4.0 | 10.0 | 0.02 | 0.40 | 0.25 | 97 | 1012.3 |
| 20260504130443 | 58 | 294 | 4.0 | 10.0 | 0.02 | 0.40 | 0.24 | 97 | 1012.4 |
| 20260504130327 | 58 | 282 | 6.0 | 11.0 | 0.02 | 0.40 | 0.24 | 97 | 1012.4 |
| 20260504120317 | 61 | 150 | 1.0 | 6.0 | 0.02 | 0.40 | 0.24 | 95 | 1011.9 |
| 20260504120145 | 61 | 184 | 2.0 | 7.0 | 0.02 | 0.39 | 0.24 | 95 | 1011.9 |
| 20260504110715 | 61 | 172 | 0.0 | 3.0 | 0.02 | 0.40 | 0.22 | 95 | 1012.0 |
| 20260504110645 | 61 | 172 | 0.0 | 3.0 | 0.02 | 0.40 | 0.22 | 95 | 1012.0 |
| 20260504110535 | 61 | 173 | 0.0 | 3.0 | 0.02 | 0.40 | 0.22 | 95 | 1012.0 |
| 20260504110444 | 61 | 198 | 1.0 | 3.0 | 0.02 | 0.39 | 0.22 | 95 | 1012.1 |
| 20260504110408 | 61 | 198 | 1.0 | 3.0 | 0.02 | 0.39 | 0.21 | 95 | 1012.1 |
| 20260504100559 | 61 | 277 | 4.0 | 9.0 | 0.02 | 0.39 | 0.20 | 94 | 1011.9 |
| 20260504100505 | 61 | 243 | 4.0 | 7.0 | 0.02 | 0.39 | 0.20 | 94 | 1011.8 |
| 20260504100358 | 61 | 274 | 4.0 | 7.0 | 0.02 | 0.39 | 0.20 | 94 | 1011.9 |
| 20260504100216 | 61 | 238 | 2.0 | 7.0 | 0.02 | 0.39 | 0.20 | 94 | 1011.8 |
| 20260504090111 | 61 | 261 | 5.0 | 9.0 | 0.02 | 0.38 | 0.18 | 93 | 1011.9 |